| time (UTC) | temp F | wind direction | speed MPH | gust MPH | rain 1hr in | rain 24hr in | rain mn in | humidity % | barometer mb |
| 20260903053821 | 67 | 350 | 0.0 | 0.0 | 0.10 | 0.22 | 0.16 | 97 | 1017.4 |
| 20260903053318 | 67 | 350 | 0.0 | 0.0 | 0.10 | 0.22 | 0.16 | 97 | 1017.4 |
| 20260903052814 | 67 | 350 | 0.0 | 2.0 | 0.09 | 0.21 | 0.15 | 97 | 1017.4 |
| 20260903052313 | 67 | 350 | 0.0 | 2.0 | 0.11 | 0.21 | 0.15 | 97 | 1017.3 |
| 20260903051829 | 67 | 321 | 0.0 | 2.0 | 0.12 | 0.21 | 0.15 | 97 | 1016.8 |
| 20260903051326 | 66 | 103 | 0.0 | 0.0 | 0.13 | 0.20 | 0.14 | 97 | 1016.6 |
| 20260903050827 | 66 | 103 | 0.0 | 0.0 | 0.13 | 0.20 | 0.14 | 97 | 1016.8 |
| 20260903050324 | 67 | 103 | 0.0 | 0.0 | 0.13 | 0.19 | 0.13 | 97 | 1017.5 |
| 20260903045821 | 67 | 103 | 0.0 | 2.0 | 0.12 | 0.18 | 0.12 | 97 | 1017.9 |
| 20260903045319 | 67 | 103 | 0.0 | 3.0 | 0.11 | 0.17 | 0.11 | 97 | 1018.4 |
| 20260903044816 | 67 | 194 | 0.0 | 4.0 | 0.10 | 0.16 | 0.10 | 97 | 1018.7 |
| 20260903044312 | 67 | 171 | 1.0 | 4.0 | 0.09 | 0.15 | 0.09 | 97 | 1018.8 |
| 20260903043812 | 67 | 319 | 1.0 | 3.0 | 0.06 | 0.12 | 0.06 | 97 | 1019.2 |
| 20260903043329 | 67 | 11 | 0.0 | 4.0 | 0.06 | 0.12 | 0.06 | 97 | 1018.9 |
| 20260903042825 | 67 | 324 | 2.0 | 4.0 | 0.06 | 0.12 | 0.06 | 97 | 1018.9 |
| 20260903042322 | 67 | 321 | 0.0 | 4.0 | 0.04 | 0.10 | 0.04 | 97 | 1019.0 |
| 20260903041819 | 67 | 360 | 2.0 | 4.0 | 0.03 | 0.09 | 0.03 | 97 | 1019.4 |
| 20260903041317 | 67 | 345 | 0.0 | 0.0 | 0.01 | 0.07 | 0.01 | 97 | 1019.5 |
| 20260903040814 | 66 | 96 | 0.0 | 0.0 | 0.00 | 0.06 | 0.00 | 97 | 1018.9 |
| 20260903040315 | 66 | 96 | 0.0 | 0.0 | 0.00 | 0.06 | 0.00 | 97 | 1018.8 |
| 20260903035830 | 66 | 96 | 0.0 | 0.0 | 0.00 | 0.06 | 0.06 | 97 | 1018.9 |
| 20260903035328 | 66 | 96 | 0.0 | 0.0 | 0.00 | 0.06 | 0.06 | 97 | 1018.9 |
| 20260903034825 | 66 | 96 | 0.0 | 0.0 | 0.00 | 0.06 | 0.06 | 97 | 1018.8 |
| 20260903034322 | 66 | 96 | 0.0 | 0.0 | 0.00 | 0.06 | 0.06 | 97 | 1018.8 |
| 20260903033819 | 66 | 96 | 0.0 | 1.0 | 0.00 | 0.06 | 0.06 | 97 | 1018.4 |
| 20260903033316 | 66 | 96 | 0.0 | 2.0 | 0.00 | 0.06 | 0.06 | 97 | 1018.1 |
| 20260903032815 | 66 | 96 | 0.0 | 0.0 | 0.00 | 0.06 | 0.06 | 97 | 1018.1 |
| 20260903032313 | 66 | 96 | 0.0 | 0.0 | 0.00 | 0.06 | 0.06 | 97 | 1018.3 |
| 20260903031829 | 66 | 96 | 0.0 | 0.0 | 0.00 | 0.06 | 0.06 | 97 | 1018.5 |
| 20260903031325 | 66 | 96 | 0.0 | 0.0 | 0.00 | 0.06 | 0.06 | 97 | 1018.5 |
| 20260903030822 | 66 | 96 | 0.0 | 0.0 | 0.00 | 0.06 | 0.06 | 97 | 1018.3 |
| 20260903030319 | 66 | 96 | 0.0 | 0.0 | 0.00 | 0.06 | 0.06 | 97 | 1018.4 |
| 20260903025816 | 66 | 96 | 0.0 | 0.0 | 0.00 | 0.06 | 0.06 | 97 | 1018.4 |
| 20260903025318 | 66 | 96 | 0.0 | 0.0 | 0.00 | 0.06 | 0.06 | 97 | 1018.4 |
| 20260903024814 | 66 | 96 | 0.0 | 0.0 | 0.00 | 0.06 | 0.06 | 97 | 1018.4 |
| 20260903024331 | 66 | 96 | 0.0 | 0.0 | 0.00 | 0.06 | 0.06 | 97 | 1018.5 |
| 20260903023827 | 66 | 96 | 0.0 | 2.0 | 0.00 | 0.06 | 0.06 | 97 | 1018.7 |
| 20260903023324 | 66 | 96 | 0.0 | 2.0 | 0.00 | 0.06 | 0.06 | 97 | 1018.4 |
| 20260903022821 | 66 | 100 | 0.0 | 0.0 | 0.00 | 0.06 | 0.06 | 97 | 1018.5 |
| 20260903022318 | 66 | 117 | 0.0 | 0.0 | 0.00 | 0.06 | 0.06 | 97 | 1018.3 |
| 20260903021819 | 66 | 117 | 0.0 | 0.0 | 0.00 | 0.06 | 0.06 | 97 | 1018.4 |
| 20260903021316 | 66 | 162 | 0.0 | 0.0 | 0.00 | 0.06 | 0.06 | 97 | 1018.6 |
| 20260903020812 | 66 | 171 | 0.0 | 0.0 | 0.00 | 0.06 | 0.06 | 97 | 1018.9 |
| 20260903020329 | 66 | 171 | 0.0 | 0.0 | 0.01 | 0.06 | 0.06 | 97 | 1018.9 |
| 20260903015826 | 66 | 171 | 0.0 | 0.0 | 0.01 | 0.06 | 0.06 | 97 | 1019.0 |
| 20260903015324 | 66 | 171 | 0.0 | 0.0 | 0.01 | 0.06 | 0.06 | 97 | 1019.1 |
| 20260903014821 | 66 | 171 | 0.0 | 0.0 | 0.01 | 0.06 | 0.06 | 97 | 1018.8 |
| 20260903014322 | 66 | 125 | 0.0 | 0.0 | 0.01 | 0.06 | 0.06 | 97 | 1018.6 |
| 20260903013819 | 66 | 51 | 0.0 | 2.0 | 0.01 | 0.06 | 0.06 | 97 | 1018.5 |
| 20260903013316 | 66 | 107 | 0.0 | 2.0 | 0.01 | 0.06 | 0.06 | 97 | 1018.5 |
| 20260903012811 | 66 | 136 | 0.0 | 3.0 | 0.01 | 0.06 | 0.06 | 97 | 1018.5 |
| 20260903012330 | 66 | 107 | 1.0 | 3.0 | 0.01 | 0.06 | 0.06 | 97 | 1018.7 |
| 20260903011826 | 66 | 92 | 0.0 | 2.0 | 0.01 | 0.06 | 0.06 | 97 | 1018.5 |
| 20260903011319 | 66 | 71 | 0.0 | 1.0 | 0.01 | 0.06 | 0.06 | 97 | 1018.9 |
| 20260903010820 | 66 | 93 | 0.0 | 2.0 | 0.01 | 0.06 | 0.06 | 97 | 1019.0 |
| 20260903010317 | 66 | 113 | 0.0 | 2.0 | 0.00 | 0.05 | 0.05 | 97 | 1018.9 |
| 20260903005814 | 66 | 140 | 0.0 | 1.0 | 0.00 | 0.06 | 0.05 | 97 | 1019.3 |
| 20260903005311 | 66 | 140 | 0.0 | 1.0 | 0.00 | 0.06 | 0.05 | 97 | 1019.2 |
| 20260903004827 | 66 | 150 | 0.0 | 1.0 | 0.00 | 0.06 | 0.05 | 97 | 1018.9 |
| 20260903004326 | 66 | 120 | 0.0 | 1.0 | 0.00 | 0.06 | 0.05 | 97 | 1018.9 |
| 20260903003822 | 66 | 138 | 0.0 | 1.0 | 0.00 | 0.06 | 0.05 | 97 | 1019.0 |
| 20260903003323 | 66 | 148 | 0.0 | 2.0 | 0.00 | 0.06 | 0.05 | 96 | 1019.0 |
| 20260903002819 | 66 | 125 | 0.0 | 2.0 | 0.00 | 0.06 | 0.05 | 96 | 1019.2 |
| 20260903002317 | 66 | 105 | 1.0 | 2.0 | 0.00 | 0.06 | 0.05 | 96 | 1019.0 |
| 20260903001814 | 67 | 114 | 0.0 | 0.0 | 0.00 | 0.06 | 0.05 | 96 | 1019.0 |
| 20260903001311 | 67 | 117 | 0.0 | 0.0 | 0.00 | 0.06 | 0.05 | 96 | 1019.0 |
| 20260903000828 | 67 | 92 | 0.0 | 0.0 | 0.00 | 0.06 | 0.05 | 96 | 1018.8 |
| 20260903000325 | 67 | 92 | 0.0 | 0.0 | 0.00 | 0.06 | 0.05 | 96 | 1018.9 |
| 20260902235824 | 67 | 92 | 0.0 | 0.0 | 0.00 | 0.24 | 0.05 | 96 | 1018.9 |
| 20260902235322 | 67 | 71 | 0.0 | 0.0 | 0.00 | 0.24 | 0.05 | 96 | 1018.7 |
| 20260902234819 | 67 | 132 | 0.0 | 0.0 | 0.00 | 0.24 | 0.05 | 96 | 1018.5 |
| 20260902234316 | 67 | 126 | 0.0 | 0.0 | 0.00 | 0.24 | 0.05 | 96 | 1018.6 |
| 20260902233813 | 67 | 126 | 0.0 | 0.0 | 0.00 | 0.24 | 0.05 | 96 | 1018.6 |
| 20260902233330 | 67 | 147 | 0.0 | 0.0 | 0.00 | 0.24 | 0.05 | 96 | 1018.4 |
| 20260902232825 | 67 | 147 | 0.0 | 0.0 | 0.00 | 0.24 | 0.05 | 96 | 1018.5 |
| 20260902232328 | 67 | 147 | 0.0 | 0.0 | 0.00 | 0.24 | 0.05 | 96 | 1018.7 |
| 20260902231824 | 67 | 147 | 0.0 | 0.0 | 0.00 | 0.24 | 0.05 | 96 | 1018.5 |
| 20260902231321 | 67 | 147 | 0.0 | 0.0 | 0.00 | 0.24 | 0.05 | 96 | 1018.5 |
| 20260902230818 | 67 | 147 | 0.0 | 0.0 | 0.00 | 0.24 | 0.05 | 96 | 1018.6 |
| 20260902230315 | 67 | 147 | 0.0 | 0.0 | 0.00 | 0.24 | 0.05 | 96 | 1018.6 |
| 20260902225812 | 67 | 150 | 0.0 | 1.0 | 0.00 | 0.54 | 0.05 | 96 | 1018.5 |
| 20260902225329 | 67 | 166 | 0.0 | 1.0 | 0.00 | 0.54 | 0.05 | 96 | 1018.7 |
| 20260902224830 | 67 | 173 | 0.0 | 1.0 | 0.00 | 0.54 | 0.05 | 96 | 1018.7 |
| 20260902224327 | 67 | 105 | 0.0 | 2.0 | 0.00 | 0.54 | 0.05 | 96 | 1018.6 |
| 20260902223823 | 67 | 94 | 0.0 | 3.0 | 0.00 | 0.54 | 0.05 | 96 | 1018.8 |
| 20260902223320 | 67 | 93 | 0.0 | 3.0 | 0.00 | 0.54 | 0.05 | 96 | 1019.0 |
| 20260902222817 | 67 | 103 | 0.0 | 2.0 | 0.00 | 0.54 | 0.05 | 96 | 1019.1 |
| 20260902222314 | 67 | 56 | 1.0 | 2.0 | 0.00 | 0.54 | 0.05 | 96 | 1019.2 |
| 20260902221811 | 67 | 101 | 0.0 | 2.0 | 0.00 | 0.54 | 0.05 | 96 | 1019.2 |
| 20260902221313 | 67 | 157 | 0.0 | 2.0 | 0.00 | 0.54 | 0.05 | 96 | 1019.2 |
| 20260902220830 | 67 | 140 | 0.0 | 2.0 | 0.00 | 0.54 | 0.05 | 96 | 1019.1 |
| 20260902220326 | 67 | 145 | 0.0 | 3.0 | 0.00 | 0.54 | 0.05 | 96 | 1019.1 |
| 20260902215822 | 67 | 101 | 0.0 | 3.0 | 0.00 | 0.54 | 0.05 | 96 | 1019.3 |
| 20260902215319 | 67 | 114 | 0.0 | 5.0 | 0.00 | 0.54 | 0.05 | 96 | 1019.3 |
| 20260902214816 | 67 | 167 | 1.0 | 5.0 | 0.00 | 0.54 | 0.05 | 96 | 1019.3 |
| 20260902214312 | 67 | 131 | 0.0 | 2.0 | 0.00 | 0.54 | 0.05 | 96 | 1019.3 |
| 20260902213813 | 67 | 115 | 0.0 | 3.0 | 0.00 | 0.54 | 0.05 | 96 | 1019.3 |
| 20260902213330 | 67 | 96 | 1.0 | 3.0 | 0.00 | 0.54 | 0.05 | 96 | 1019.3 |
| 20260902212825 | 67 | 105 | 0.0 | 2.0 | 0.00 | 0.54 | 0.05 | 96 | 1019.3 |
| 20260902212324 | 67 | 101 | 0.0 | 2.0 | 0.00 | 0.54 | 0.05 | 96 | 1019.5 |
| 20260902211820 | 67 | 165 | 0.0 | 4.0 | 0.00 | 0.54 | 0.05 | 96 | 1019.4 |
| 20260902211317 | 67 | 140 | 0.0 | 4.0 | 0.00 | 0.54 | 0.05 | 95 | 1019.3 |
| 20260902210814 | 67 | 108 | 0.0 | 2.0 | 0.00 | 0.54 | 0.05 | 95 | 1019.4 |
| 20260902210315 | 67 | 152 | 0.0 | 3.0 | 0.00 | 0.54 | 0.05 | 95 | 1019.3 |
| 20260902205812 | 67 | 126 | 0.0 | 2.0 | 0.00 | 0.54 | 0.05 | 95 | 1019.3 |
| 20260902205329 | 67 | 103 | 0.0 | 2.0 | 0.00 | 0.54 | 0.05 | 95 | 1019.3 |
| 20260902204825 | 67 | 152 | 0.0 | 0.0 | 0.00 | 0.54 | 0.05 | 95 | 1019.3 |
| 20260902204322 | 67 | 152 | 0.0 | 0.0 | 0.00 | 0.54 | 0.05 | 95 | 1019.3 |
| 20260902203818 | 67 | 152 | 0.0 | 2.0 | 0.00 | 0.54 | 0.05 | 95 | 1019.4 |
| 20260902203315 | 67 | 151 | 0.0 | 2.0 | 0.00 | 0.54 | 0.05 | 95 | 1019.3 |
| 20260902202816 | 67 | 140 | 0.0 | 2.0 | 0.00 | 0.54 | 0.05 | 95 | 1019.3 |
| 20260902202313 | 66 | 140 | 0.0 | 2.0 | 0.00 | 0.54 | 0.05 | 96 | 1019.3 |
| 20260902201830 | 66 | 79 | 1.0 | 2.0 | 0.00 | 0.54 | 0.05 | 95 | 1019.3 |
| 20260902201327 | 67 | 152 | 0.0 | 2.0 | 0.00 | 0.54 | 0.05 | 96 | 1019.3 |
| 20260902200824 | 67 | 165 | 0.0 | 2.0 | 0.00 | 0.54 | 0.05 | 96 | 1019.3 |
| 20260902200320 | 67 | 219 | 0.0 | 2.0 | 0.00 | 0.54 | 0.05 | 96 | 1019.1 |
| 20260902195817 | 67 | 99 | 1.0 | 2.0 | 0.00 | 0.54 | 0.05 | 96 | 1019.1 |
| 20260902195318 | 67 | 266 | 0.0 | 0.0 | 0.00 | 0.54 | 0.05 | 95 | 1019.4 |
| 20260902194815 | 67 | 321 | 0.0 | 0.0 | 0.01 | 0.54 | 0.05 | 96 | 1019.4 |
| 20260902194312 | 66 | 321 | 0.0 | 0.0 | 0.02 | 0.54 | 0.05 | 95 | 1019.4 |
| 20260902193829 | 66 | 321 | 0.0 | 0.0 | 0.02 | 0.54 | 0.05 | 96 | 1019.5 |
| 20260902193325 | 66 | 321 | 0.0 | 0.0 | 0.02 | 0.54 | 0.05 | 96 | 1019.6 |
| 20260902192822 | 66 | 321 | 0.0 | 0.0 | 0.02 | 0.54 | 0.05 | 96 | 1019.7 |
| 20260902192320 | 66 | 321 | 0.0 | 0.0 | 0.02 | 0.54 | 0.05 | 95 | 1019.6 |
| 20260902191821 | 66 | 321 | 0.0 | 0.0 | 0.02 | 0.54 | 0.05 | 96 | 1019.7 |
| 20260902191318 | 66 | 321 | 0.0 | 0.0 | 0.02 | 0.54 | 0.05 | 96 | 1019.8 |
| 20260902190815 | 66 | 321 | 0.0 | 2.0 | 0.02 | 0.54 | 0.05 | 96 | 1019.8 |
| 20260902190312 | 66 | 342 | 1.0 | 5.0 | 0.02 | 0.54 | 0.05 | 95 | 1020.1 |
| 20260902185828 | 66 | 340 | 1.0 | 5.0 | 0.02 | 0.54 | 0.05 | 95 | 1020.2 |
| 20260902185325 | 66 | 327 | 1.0 | 4.0 | 0.02 | 0.54 | 0.05 | 95 | 1020.3 |
| 20260902184821 | 67 | 329 | 2.0 | 4.0 | 0.01 | 0.53 | 0.04 | 95 | 1020.4 |
| 20260902184322 | 66 | 355 | 2.0 | 4.0 | 0.00 | 0.52 | 0.03 | 96 | 1020.3 |
| 20260902183819 | 66 | 355 | 0.0 | 2.0 | 0.00 | 0.52 | 0.03 | 96 | 1020.0 |
| 20260902183316 | 66 | 355 | 0.0 | 0.0 | 0.00 | 0.52 | 0.03 | 96 | 1019.9 |
| 20260902182813 | 66 | 355 | 0.0 | 0.0 | 0.00 | 0.52 | 0.03 | 96 | 1019.9 |
| 20260902182330 | 66 | 355 | 0.0 | 0.0 | 0.00 | 0.52 | 0.03 | 96 | 1020.0 |
| 20260902181826 | 66 | 355 | 0.0 | 0.0 | 0.00 | 0.52 | 0.03 | 96 | 1020.0 |
| 20260902181323 | 67 | 355 | 0.0 | 0.0 | 0.00 | 0.52 | 0.03 | 96 | 1020.0 |
| 20260902180824 | 66 | 355 | 0.0 | 1.0 | 0.00 | 0.52 | 0.03 | 96 | 1020.1 |
| 20260902180321 | 66 | 355 | 0.0 | 3.0 | 0.00 | 0.52 | 0.03 | 96 | 1020.2 |
| 20260902175817 | 66 | 355 | 2.0 | 3.0 | 0.00 | 0.52 | 0.03 | 96 | 1020.4 |
| 20260902175315 | 66 | 11 | 0.0 | 1.0 | 0.00 | 0.52 | 0.03 | 96 | 1020.3 |
| 20260902174812 | 66 | 130 | 0.0 | 1.0 | 0.00 | 0.52 | 0.03 | 96 | 1020.1 |
| 20260902174329 | 66 | 130 | 0.0 | 1.0 | 0.00 | 0.52 | 0.03 | 96 | 1019.8 |
| 20260902173825 | 66 | 92 | 0.0 | 0.0 | 0.00 | 0.52 | 0.03 | 96 | 1019.9 |
| 20260902173326 | 66 | 92 | 0.0 | 0.0 | 0.00 | 0.52 | 0.03 | 96 | 1020.0 |
| 20260902172822 | 66 | 92 | 0.0 | 0.0 | 0.00 | 0.52 | 0.03 | 96 | 1020.2 |
| 20260902172320 | 66 | 92 | 0.0 | 2.0 | 0.00 | 0.52 | 0.03 | 96 | 1020.2 |
| 20260902171817 | 65 | 92 | 0.0 | 3.0 | 0.00 | 0.52 | 0.03 | 96 | 1020.2 |
| 20260902171314 | 65 | 92 | 2.0 | 3.0 | 0.00 | 0.52 | 0.03 | 96 | 1020.2 |
| 20260902170811 | 66 | 113 | 0.0 | 0.0 | 0.00 | 0.52 | 0.03 | 96 | 1020.3 |
| 20260902170311 | 66 | 113 | 0.0 | 0.0 | 0.00 | 0.52 | 0.03 | 96 | 1020.3 |
| 20260902165827 | 65 | 113 | 0.0 | 0.0 | 0.00 | 0.52 | 0.03 | 96 | 1020.4 |
| 20260902165324 | 65 | 113 | 0.0 | 0.0 | 0.00 | 0.52 | 0.03 | 96 | 1020.4 |
| 20260902164821 | 65 | 130 | 0.0 | 2.0 | 0.00 | 0.52 | 0.03 | 96 | 1020.4 |
| 20260902164317 | 65 | 72 | 1.0 | 2.0 | 0.00 | 0.52 | 0.03 | 97 | 1020.3 |
| 20260902163814 | 65 | 118 | 0.0 | 2.0 | 0.00 | 0.52 | 0.03 | 97 | 1020.3 |
| 20260902163311 | 65 | 104 | 1.0 | 3.0 | 0.00 | 0.52 | 0.03 | 97 | 1020.4 |
| 20260902162811 | 65 | 98 | 0.0 | 2.0 | 0.00 | 0.52 | 0.03 | 97 | 1020.5 |
| 20260902162330 | 65 | 146 | 0.0 | 1.0 | 0.00 | 0.52 | 0.03 | 97 | 1020.7 |
| 20260902161826 | 65 | 158 | 0.0 | 0.0 | 0.00 | 0.52 | 0.03 | 96 | 1020.7 |
| 20260902161322 | 65 | 158 | 0.0 | 1.0 | 0.00 | 0.52 | 0.03 | 97 | 1020.8 |
| 20260902160819 | 65 | 158 | 0.0 | 1.0 | 0.00 | 0.52 | 0.03 | 97 | 1020.8 |
| 20260902160316 | 65 | 169 | 0.0 | 0.0 | 0.00 | 0.52 | 0.03 | 97 | 1020.7 |
| 20260902155812 | 65 | 169 | 0.0 | 0.0 | 0.00 | 0.53 | 0.03 | 97 | 1020.6 |
| 20260902155314 | 65 | 169 | 0.0 | 1.0 | 0.00 | 0.53 | 0.03 | 97 | 1020.6 |
| 20260902154830 | 64 | 169 | 0.0 | 1.0 | 0.00 | 0.53 | 0.03 | 97 | 1020.6 |
| 20260902154326 | 64 | 184 | 0.0 | 2.0 | 0.00 | 0.53 | 0.03 | 97 | 1020.6 |
| 20260902153823 | 64 | 123 | 1.0 | 3.0 | 0.00 | 0.53 | 0.03 | 97 | 1020.6 |
| 20260902153320 | 64 | 86 | 1.0 | 3.0 | 0.00 | 0.53 | 0.03 | 97 | 1020.6 |
| 20260902152817 | 64 | 84 | 0.0 | 1.0 | 0.00 | 0.53 | 0.03 | 96 | 1020.5 |
| 20260902152314 | 64 | 113 | 0.0 | 2.0 | 0.00 | 0.53 | 0.03 | 97 | 1020.5 |
| 20260902151814 | 64 | 131 | 0.0 | 3.0 | 0.00 | 0.53 | 0.03 | 97 | 1020.5 |
| 20260902151313 | 64 | 130 | 0.0 | 1.0 | 0.00 | 0.53 | 0.03 | 97 | 1020.5 |
| 20260902150829 | 64 | 192 | 0.0 | 4.0 | 0.00 | 0.53 | 0.03 | 97 | 1020.7 |
| 20260902150326 | 64 | 235 | 0.0 | 4.0 | 0.00 | 0.53 | 0.03 | 97 | 1020.8 |
| 20260902145823 | 64 | 137 | 0.0 | 2.0 | 0.00 | 0.58 | 0.03 | 97 | 1020.8 |
| 20260902145320 | 64 | 5 | 0.0 | 4.0 | 0.00 | 0.58 | 0.03 | 97 | 1020.9 |
| 20260902144817 | 64 | 355 | 2.0 | 4.0 | 0.00 | 0.58 | 0.03 | 97 | 1020.8 |
| 20260902144318 | 64 | 198 | 1.0 | 4.0 | 0.01 | 0.58 | 0.03 | 97 | 1020.6 |
| 20260902143814 | 64 | 110 | 1.0 | 3.0 | 0.01 | 0.58 | 0.03 | 97 | 1020.5 |
| 20260902143311 | 64 | 142 | 1.0 | 3.0 | 0.01 | 0.58 | 0.03 | 97 | 1020.4 |
| 20260902142827 | 64 | 94 | 2.0 | 6.0 | 0.01 | 0.58 | 0.03 | 97 | 1020.3 |
| 20260902142324 | 64 | 180 | 1.0 | 6.0 | 0.01 | 0.58 | 0.03 | 97 | 1020.5 |
| 20260902141821 | 64 | 90 | 1.0 | 4.0 | 0.01 | 0.58 | 0.03 | 97 | 1020.4 |
| 20260902141319 | 64 | 126 | 1.0 | 4.0 | 0.01 | 0.58 | 0.03 | 97 | 1020.4 |
| 20260902140819 | 64 | 94 | 0.0 | 3.0 | 0.01 | 0.58 | 0.03 | 97 | 1020.4 |
| 20260902140316 | 64 | 127 | 1.0 | 4.0 | 0.01 | 0.58 | 0.03 | 97 | 1020.5 |
| 20260902135813 | 64 | 132 | 1.0 | 4.0 | 0.01 | 0.58 | 0.03 | 97 | 1020.6 |
| 20260902135330 | 64 | 98 | 0.0 | 2.0 | 0.01 | 0.58 | 0.03 | 97 | 1020.5 |
| 20260902134827 | 64 | 116 | 0.0 | 3.0 | 0.01 | 0.58 | 0.03 | 97 | 1020.6 |
| 20260902134325 | 64 | 172 | 1.0 | 3.0 | 0.01 | 0.57 | 0.02 | 97 | 1020.5 |
| 20260902133822 | 64 | 104 | 0.0 | 6.0 | 0.01 | 0.57 | 0.02 | 97 | 1020.5 |
| 20260902133323 | 64 | 103 | 0.0 | 6.0 | 0.01 | 0.57 | 0.02 | 97 | 1020.4 |
| 20260902132818 | 64 | 55 | 0.0 | 3.0 | 0.01 | 0.57 | 0.02 | 97 | 1020.3 |
| 20260902132316 | 64 | 146 | 0.0 | 4.0 | 0.01 | 0.57 | 0.02 | 97 | 1020.5 |
| 20260902131813 | 64 | 134 | 0.0 | 3.0 | 0.01 | 0.57 | 0.02 | 97 | 1020.6 |
| 20260902131330 | 64 | 88 | 0.0 | 1.0 | 0.01 | 0.57 | 0.02 | 97 | 1020.4 |
| 20260902130827 | 64 | 65 | 0.0 | 2.0 | 0.01 | 0.57 | 0.02 | 97 | 1020.2 |
| 20260902130324 | 64 | 150 | 0.0 | 3.0 | 0.01 | 0.57 | 0.02 | 97 | 1020.2 |
| 20260902125824 | 64 | 137 | 0.0 | 3.0 | 0.01 | 0.57 | 0.02 | 97 | 1020.2 |
| 20260902125322 | 64 | 104 | 0.0 | 6.0 | 0.01 | 0.57 | 0.02 | 97 | 1020.2 |
| 20260902124818 | 64 | 103 | 2.0 | 6.0 | 0.01 | 0.57 | 0.02 | 97 | 1020.2 |
| 20260902124316 | 64 | 88 | 0.0 | 2.0 | 0.00 | 0.56 | 0.01 | 97 | 1020.2 |
| 20260902123812 | 64 | 101 | 0.0 | 6.0 | 0.00 | 0.56 | 0.01 | 97 | 1020.2 |
| 20260902123329 | 64 | 167 | 0.0 | 6.0 | 0.00 | 0.56 | 0.01 | 97 | 1020.2 |
| 20260902122826 | 64 | 137 | 0.0 | 3.0 | 0.00 | 0.56 | 0.01 | 97 | 1020.0 |
| 20260902122328 | 64 | 140 | 0.0 | 2.0 | 0.00 | 0.56 | 0.01 | 97 | 1019.9 |
| 20260902121825 | 64 | 86 | 0.0 | 3.0 | 0.00 | 0.56 | 0.01 | 97 | 1019.8 |
| 20260902121322 | 64 | 108 | 1.0 | 4.0 | 0.00 | 0.56 | 0.01 | 97 | 1019.8 |
| 20260902120818 | 64 | 116 | 0.0 | 7.0 | 0.00 | 0.56 | 0.01 | 97 | 1019.8 |
| 20260902120315 | 64 | 165 | 0.0 | 4.0 | 0.01 | 0.56 | 0.01 | 97 | 1019.7 |
| 20260902115811 | 64 | 213 | 1.0 | 4.0 | 0.01 | 0.58 | 0.01 | 97 | 1019.7 |
| 20260902115328 | 64 | 168 | 0.0 | 4.0 | 0.01 | 0.58 | 0.01 | 97 | 1019.8 |
| 20260902114829 | 64 | 110 | 1.0 | 4.0 | 0.01 | 0.58 | 0.01 | 97 | 1019.7 |
| 20260902114325 | 64 | 145 | 0.0 | 2.0 | 0.01 | 0.58 | 0.01 | 97 | 1019.7 |
| 20260902113821 | 64 | 138 | 1.0 | 3.0 | 0.01 | 0.58 | 0.01 | 97 | 1019.8 |
| 20260902113318 | 64 | 101 | 2.0 | 3.0 | 0.01 | 0.58 | 0.01 | 97 | 1019.8 |
| 20260902112815 | 64 | 71 | 1.0 | 6.0 | 0.01 | 0.58 | 0.01 | 97 | 1019.6 |
| 20260902112312 | 64 | 69 | 1.0 | 6.0 | 0.01 | 0.58 | 0.01 | 97 | 1019.6 |
| 20260902111829 | 64 | 91 | 0.0 | 7.0 | 0.01 | 0.58 | 0.01 | 97 | 1019.6 |
| 20260902111330 | 64 | 151 | 1.0 | 7.0 | 0.01 | 0.58 | 0.01 | 97 | 1019.5 |
| 20260902110827 | 64 | 116 | 1.0 | 3.0 | 0.01 | 0.58 | 0.01 | 97 | 1019.6 |
| 20260902110323 | 64 | 138 | 0.0 | 5.0 | 0.00 | 0.57 | 0.00 | 97 | 1019.5 |
| 20260902105819 | 64 | 119 | 0.0 | 3.0 | 0.00 | 0.58 | 0.00 | 97 | 1019.7 |
| 20260902105316 | 64 | 115 | 0.0 | 3.0 | 0.00 | 0.58 | 0.00 | 97 | 1019.6 |
| 20260902104813 | 64 | 95 | 0.0 | 4.0 | 0.00 | 0.58 | 0.00 | 97 | 1019.5 |
| 20260902104330 | 64 | 95 | 0.0 | 4.0 | 0.00 | 0.58 | 0.00 | 97 | 1019.6 |
| 20260902103811 | 64 | 126 | 0.0 | 2.0 | 0.00 | 0.58 | 0.00 | 97 | 1019.6 |
| 20260902103328 | 64 | 150 | 0.0 | 2.0 | 0.00 | 0.58 | 0.00 | 97 | 1019.6 |
| 20260902102823 | 64 | 149 | 0.0 | 2.0 | 0.00 | 0.58 | 0.00 | 97 | 1019.6 |
| 20260902102320 | 64 | 125 | 0.0 | 2.0 | 0.00 | 0.58 | 0.00 | 97 | 1019.5 |
| 20260902101817 | 64 | 129 | 0.0 | 1.0 | 0.00 | 0.58 | 0.00 | 97 | 1019.5 |
| 20260902101315 | 64 | 129 | 0.0 | 1.0 | 0.00 | 0.58 | 0.00 | 97 | 1019.4 |
| 20260902100812 | 64 | 129 | 1.0 | 1.0 | 0.00 | 0.58 | 0.00 | 97 | 1019.4 |
| 20260902100313 | 64 | 343 | 0.0 | 1.0 | 0.00 | 0.58 | 0.00 | 97 | 1019.3 |
| 20260902095829 | 64 | 343 | 0.0 | 2.0 | 0.00 | 0.58 | 0.00 | 97 | 1019.3 |
| 20260902095325 | 64 | 116 | 0.0 | 2.0 | 0.00 | 0.58 | 0.00 | 97 | 1019.2 |
| 20260902094821 | 64 | 155 | 0.0 | 1.0 | 0.00 | 0.58 | 0.00 | 97 | 1019.2 |
| 20260902094318 | 64 | 188 | 0.0 | 1.0 | 0.00 | 0.58 | 0.00 | 97 | 1019.1 |
| 20260902093815 | 64 | 188 | 0.0 | 2.0 | 0.00 | 0.58 | 0.00 | 97 | 1019.1 |
| 20260902093312 | 64 | 189 | 0.0 | 2.0 | 0.00 | 0.58 | 0.00 | 97 | 1019.1 |
| 20260902092813 | 64 | 148 | 0.0 | 4.0 | 0.00 | 0.58 | 0.00 | 97 | 1019.1 |
| 20260902092330 | 64 | 132 | 1.0 | 4.0 | 0.00 | 0.58 | 0.00 | 97 | 1019.0 |
| 20260902091826 | 64 | 145 | 0.0 | 4.0 | 0.00 | 0.58 | 0.00 | 97 | 1019.0 |
| 20260902091324 | 64 | 145 | 1.0 | 4.0 | 0.00 | 0.58 | 0.00 | 97 | 1019.0 |
| 20260902090820 | 64 | 118 | 0.0 | 3.0 | 0.00 | 0.58 | 0.00 | 97 | 1018.9 |
| 20260902090317 | 64 | 123 | 1.0 | 3.0 | 0.00 | 0.58 | 0.00 | 97 | 1019.0 |
| 20260902085814 | 64 | 130 | 0.0 | 1.0 | 0.00 | 0.58 | 0.00 | 97 | 1019.0 |
| 20260902085315 | 64 | 130 | 0.0 | 2.0 | 0.00 | 0.58 | 0.00 | 97 | 1019.1 |
| 20260902084811 | 64 | 161 | 0.0 | 4.0 | 0.00 | 0.58 | 0.00 | 96 | 1019.1 |
| 20260902084329 | 64 | 129 | 1.0 | 4.0 | 0.00 | 0.58 | 0.00 | 97 | 1019.1 |
| 20260902083825 | 64 | 110 | 0.0 | 2.0 | 0.00 | 0.58 | 0.00 | 97 | 1018.8 |
| 20260902083322 | 64 | 99 | 0.0 | 2.0 | 0.00 | 0.58 | 0.00 | 97 | 1018.8 |
| 20260902082819 | 64 | 72 | 0.0 | 1.0 | 0.00 | 0.58 | 0.00 | 97 | 1018.7 |
| 20260902082318 | 64 | 133 | 0.0 | 1.0 | 0.00 | 0.58 | 0.00 | 97 | 1018.7 |
| 20260902081818 | 64 | 162 | 0.0 | 0.0 | 0.00 | 0.58 | 0.00 | 97 | 1018.6 |
| 20260902081315 | 64 | 146 | 0.0 | 1.0 | 0.00 | 0.58 | 0.00 | 97 | 1018.6 |
| 20260902080812 | 64 | 98 | 0.0 | 2.0 | 0.00 | 0.58 | 0.00 | 97 | 1018.6 |
| 20260902080328 | 65 | 93 | 0.0 | 2.0 | 0.00 | 0.58 | 0.00 | 97 | 1018.5 |
| 20260902075825 | 65 | 143 | 0.0 | 3.0 | 0.00 | 0.58 | 0.00 | 97 | 1018.6 |
| 20260902075323 | 65 | 129 | 1.0 | 3.0 | 0.00 | 0.58 | 0.00 | 97 | 1018.5 |
| 20260902074819 | 65 | 110 | 1.0 | 2.0 | 0.00 | 0.58 | 0.00 | 97 | 1018.5 |
| 20260902074319 | 65 | 118 | 1.0 | 2.0 | 0.00 | 0.58 | 0.00 | 97 | 1018.5 |
| 20260902073816 | 65 | 165 | 0.0 | 0.0 | 0.00 | 0.58 | 0.00 | 97 | 1018.5 |
| 20260902073313 | 65 | 76 | 0.0 | 2.0 | 0.00 | 0.58 | 0.00 | 97 | 1018.4 |
| 20260902072830 | 65 | 76 | 0.0 | 2.0 | 0.00 | 0.58 | 0.00 | 97 | 1018.5 |
| 20260902072327 | 64 | 150 | 1.0 | 2.0 | 0.00 | 0.58 | 0.00 | 97 | 1018.6 |
| 20260902071823 | 65 | 179 | 0.0 | 1.0 | 0.00 | 0.58 | 0.00 | 97 | 1018.6 |
| 20260902071321 | 64 | 182 | 0.0 | 2.0 | 0.00 | 0.58 | 0.00 | 96 | 1018.4 |
| 20260902070821 | 65 | 351 | 0.0 | 2.0 | 0.00 | 0.58 | 0.00 | 96 | 1018.3 |
| 20260902070318 | 65 | 121 | 0.0 | 4.0 | 0.00 | 0.58 | 0.00 | 96 | 1018.3 |
| 20260902065815 | 65 | 97 | 2.0 | 4.0 | 0.00 | 0.58 | 0.00 | 96 | 1018.2 |
| 20260902065312 | 65 | 147 | 0.0 | 2.0 | 0.00 | 0.58 | 0.00 | 96 | 1018.1 |
| 20260902064829 | 65 | 50 | 0.0 | 5.0 | 0.00 | 0.58 | 0.00 | 96 | 1018.3 |
| 20260902064326 | 65 | 205 | 1.0 | 5.0 | 0.00 | 0.58 | 0.00 | 96 | 1018.3 |
| 20260902063822 | 65 | 36 | 0.0 | 3.0 | 0.00 | 0.58 | 0.00 | 96 | 1018.2 |
| 20260902063323 | 65 | 325 | 0.0 | 2.0 | 0.00 | 0.58 | 0.00 | 96 | 1018.2 |
| 20260902062820 | 65 | 62 | 0.0 | 2.0 | 0.00 | 0.58 | 0.00 | 96 | 1018.1 |
| 20260902062316 | 65 | 115 | 0.0 | 3.0 | 0.00 | 0.58 | 0.00 | 96 | 1018.0 |
| 20260902061812 | 65 | 174 | 1.0 | 3.0 | 0.00 | 0.58 | 0.00 | 96 | 1018.1 |
| 20260902061311 | 65 | 104 | 0.0 | 2.0 | 0.00 | 0.58 | 0.00 | 96 | 1018.2 |
| 20260902060827 | 65 | 119 | 0.0 | 2.0 | 0.00 | 0.58 | 0.00 | 96 | 1018.3 |
| 20260902060324 | 65 | 116 | 0.0 | 2.0 | 0.00 | 0.58 | 0.00 | 96 | 1018.2 |
| 20260902055824 | 65 | 164 | 0.0 | 3.0 | 0.00 | 0.58 | 0.00 | 96 | 1018.3 |
| 20260902055321 | 65 | 146 | 0.0 | 4.0 | 0.00 | 0.58 | 0.00 | 96 | 1018.4 |
| 20260902054818 | 65 | 190 | 1.0 | 4.0 | 0.00 | 0.58 | 0.00 | 96 | 1018.6 |
| 20260902054315 | 65 | 134 | 0.0 | 0.0 | 0.00 | 0.58 | 0.00 | 96 | 1018.7 |